Location: *
(43.0833°N, 13.0500°E)
Time: 08:24:53
(UTC+00:00)

YAOGAN 6 - Pass Details

Date: 15 November 2019
Orbit: 467 x 504 km, 97.0° (Epoch: 15 December)

Event Time Altitude Azimuth Distance (km) Brightness Sun altitude
Rises 16:44:45 0° 145° (SE) 2,506 6.0 -11.2°
Reaches altitude 10° 16:46:57 10° 135° (SE) 1,630 4.9 -11.6°
Maximum altitude 16:50:03 31° 72° (ENE) 853 3.2 -12.1°
Drops below altitude 10° 16:53:11 10° 9° (N) 1,634 5.0 -12.7°
Sets 16:55:23 0° 359° (N) 2,515 6.1 -13.1°
